Tracking 25744 objects as of 25-Jun-2022
HD Live streaming from Space Station
objects crossing your sky now

THOR ABLESTAR DEB

Track THOR ABLESTAR DEB now!
10-day predictions


NORAD ID: 13513
Int'l Code: 1961-015KW
Perigee: 880.7 km
Apogee: 1,024.8 km
Inclination: 65.7 °
Period: 104.0 minutes
Semi major axis: 7323 km
RCS: 0.0483 m2 (small)
Launch date: June 29, 1961
Source: United States (US)
Launch site: AIR FORCE EASTERN TEST RANGE (AFETR)

Note: This is SATELLITE DEBRIS
aabbcc
Your satellite tracking list
Your tracking list is empty




NASA's NSSDC Master Catalog

Two Line Element Set (TLE):
1 13513U 61015KW  22175.33953779  .00000770  00000-0  72423-3 0  9994
2 13513  65.6801 282.9118 0098418 184.7853 211.4823 13.85170020117487
Source of the keplerian elements: AFSPC